Boulder City, NV

8:58 AM PST on February 24, 2018 (GMT -0800)
Boulder City

Weather History for KBVU - October, 2012

Change the Weather History Date:

Monday, October 15, 2012

  Actual Average (KLAS) Record (KLAS)
Temperature  
Mean Temperature 70 °F -  
Max Temperature 82 °F 79 °F 94 °F (1958)
Min Temperature 57 °F 53 °F 43 °F (1966)
Cooling Degree Days 4    
Growing Degree Days 20 (Base 50)    
Moisture  
Dew Point 45 °F    
Average Humidity 42    
Maximum Humidity 63    
Minimum Humidity 23    
Precipitation  
Precipitation 0.00 in - - ()
Sea Level Pressure  
Sea Level Pressure 30.02 in    
Wind  
Wind Speed 2 mph (North)    
Max Wind Speed 13 mph    
Max Gust Speed -    
Visibility 10 miles    
Events      
Averages and records for this station are not official NWS values.
T = Trace of Precipitation, MM = Missing Value Source: NWS Daily Summary

Daily Weather History Graph

Daily Weather History Graph

Search for Another Location

Airport or City:

Trip Planner

Search our weather history database for the weather conditions in past years. The results will help you decide how hot, cold, wet, or windy it might be!

Date:

Astronomy

Oct. 15, 2012 Rise Set
Actual Time 6:46 AM PDT 6:02 PM PDT
Civil Twilight 6:20 AM PDT 6:28 PM PDT
Nautical Twilight 5:51 AM PDT 6:58 PM PDT
Astronomical Twilight 5:21 AM PDT 7:28 PM PDT
Moon 7:00 AM PDT (10/15) 6:08 PM PDT (10/15)
Length of Visible Light 12h 07m
Length of Day
11h 16m
New Moon, 0% of the Moon is Illuminated
Oct 15
New Moon
Oct 21
First Quarter
Oct 29
Full
Nov 6
Last Quarter
Nov 13
New

Hourly Weather History & Observations

Time (PDT) Temp. Dew Point Humidity Pressure Visibility Wind Dir Wind Speed Gust Speed Precip Events Conditions
12:15 AM 66.2 °F 42.8 °F 43% 30.09 in 10.0 mi Calm Calm - N/A   Clear
12:35 AM 64.4 °F 44.6 °F 49% 30.09 in 10.0 mi Calm Calm - N/A   Clear
12:55 AM 64.4 °F 44.6 °F 49% 30.08 in 10.0 mi Calm Calm - N/A   Clear
1:15 AM 64.4 °F 44.6 °F 49% 30.08 in 10.0 mi Calm Calm - N/A   Clear
1:35 AM 62.6 °F 46.4 °F 55% 30.08 in 10.0 mi Calm Calm - N/A   Clear
1:55 AM 60.8 °F 44.6 °F 55% 30.08 in 10.0 mi WNW 3.5 mph - N/A   Clear
2:15 AM 62.6 °F 44.6 °F 52% 30.08 in 10.0 mi NW 3.5 mph - N/A   Clear
2:35 AM 62.6 °F 44.6 °F 52% 30.07 in 10.0 mi WNW 3.5 mph - N/A   Clear
2:55 AM 62.6 °F 44.6 °F 52% 30.06 in 10.0 mi WNW 3.5 mph - N/A   Clear
3:15 AM 64.4 °F 44.6 °F 49% 30.05 in 10.0 mi Calm Calm - N/A   Clear
3:35 AM 64.4 °F 44.6 °F 49% 30.05 in 10.0 mi Calm Calm - N/A   Clear
3:55 AM 62.6 °F 44.6 °F 52% 30.05 in 10.0 mi Calm Calm - N/A   Clear
4:15 AM 59.0 °F 46.4 °F 63% 30.05 in 10.0 mi Calm Calm - N/A   Clear
4:35 AM 64.4 °F 41.0 °F 42% 30.05 in 10.0 mi North 4.6 mph - N/A   Clear
4:55 AM 64.4 °F 41.0 °F 42% 30.05 in 10.0 mi NW 5.8 mph - N/A   Clear
5:15 AM 60.8 °F 44.6 °F 55% 30.05 in 10.0 mi Calm Calm - N/A   Clear
5:35 AM 59.0 °F 44.6 °F 59% 30.05 in 10.0 mi Calm Calm - N/A   Clear
5:55 AM 57.2 °F 44.6 °F 63% 30.05 in 10.0 mi NW 3.5 mph - N/A   Clear
6:15 AM 59.0 °F 44.6 °F 59% 30.05 in 10.0 mi West 3.5 mph - N/A   Clear
6:35 AM 59.0 °F 44.6 °F 59% 30.06 in 10.0 mi Calm Calm - N/A   Clear
6:55 AM 59.0 °F 44.6 °F 59% 30.06 in 10.0 mi Calm Calm - N/A   Clear
7:15 AM 60.8 °F 44.6 °F 55% 30.06 in 10.0 mi Calm Calm - N/A   Clear
7:35 AM 62.6 °F 44.6 °F 52% 30.06 in 10.0 mi Calm Calm - N/A   Clear
7:55 AM 62.6 °F 46.4 °F 55% 30.06 in 10.0 mi Calm Calm - N/A   Clear
8:15 AM 62.6 °F 46.4 °F 55% 30.07 in 10.0 mi Calm Calm - N/A   Clear
8:55 AM 64.4 °F 46.4 °F 52% 30.08 in 10.0 mi WNW 3.5 mph - N/A   Clear
9:15 AM 66.2 °F 44.6 °F 46% 30.08 in 10.0 mi West 6.9 mph - N/A   Clear
9:35 AM 71.6 °F 42.8 °F 35% 30.08 in 10.0 mi NW 12.7 mph - N/A   Clear
9:55 AM 71.6 °F 41.0 °F 33% 30.08 in 10.0 mi NW 9.2 mph - N/A   Clear
10:15 AM 73.4 °F 41.0 °F 31% 30.08 in 10.0 mi NW 6.9 mph - N/A   Clear
10:35 AM 73.4 °F 42.8 °F 33% 30.07 in 10.0 mi ENE 4.6 mph - N/A   Clear
10:55 AM 73.4 °F 46.4 °F 38% 30.07 in 10.0 mi Calm Calm - N/A   Clear
11:15 AM 75.2 °F 46.4 °F 36% 30.06 in 10.0 mi Calm Calm - N/A   Clear
11:35 AM 77.0 °F 42.8 °F 29% 30.06 in 10.0 mi WSW 6.9 mph - N/A   Clear
11:55 AM 77.0 °F 42.8 °F 29% 30.05 in 10.0 mi SE 5.8 mph - N/A   Clear
12:15 PM 77.0 °F 44.6 °F 32% 30.05 in 10.0 mi North 3.5 mph - N/A   Clear
12:35 PM 77.0 °F 44.6 °F 32% 30.04 in 10.0 mi NNE 6.9 mph - N/A   Clear
12:55 PM 80.6 °F 42.8 °F 26% 30.03 in 10.0 mi NW 10.4 mph - N/A   Clear
1:15 PM 80.6 °F 42.8 °F 26% 30.02 in 10.0 mi NE 4.6 mph - N/A   Clear
1:35 PM 80.6 °F 44.6 °F 28% 30.01 in 10.0 mi NNE 4.6 mph - N/A   Clear
1:55 PM 80.6 °F 44.6 °F 28% 30.00 in 10.0 mi NE 4.6 mph - N/A   Clear
2:15 PM 80.6 °F 42.8 °F 26% 30.00 in 10.0 mi East 3.5 mph - N/A   Clear
2:35 PM 80.6 °F 42.8 °F 26% 29.99 in 10.0 mi Calm Calm - N/A   Clear
2:55 PM 82.4 °F 41.0 °F 23% 29.98 in 10.0 mi NNE 4.6 mph - N/A   Clear
3:15 PM 82.4 °F 41.0 °F 23% 29.98 in 10.0 mi Calm Calm - N/A   Clear
3:35 PM 82.4 °F 41.0 °F 23% 29.97 in 10.0 mi ESE 3.5 mph - N/A   Clear
3:55 PM 82.4 °F 41.0 °F 23% 29.97 in 10.0 mi Calm Calm - N/A   Clear
4:15 PM 82.4 °F 41.0 °F 23% 29.96 in 10.0 mi NE 3.5 mph - N/A   Clear
4:35 PM 82.4 °F 41.0 °F 23% 29.96 in 10.0 mi NE 5.8 mph - N/A   Clear
4:55 PM 80.6 °F 42.8 °F 26% 29.96 in 10.0 mi NNE 5.8 mph - N/A   Clear
5:15 PM 80.6 °F 44.6 °F 28% 29.95 in 10.0 mi NE 6.9 mph - N/A   Clear
5:35 PM 77.0 °F 46.4 °F 34% 29.95 in 10.0 mi NE 5.8 mph - N/A   Clear
5:55 PM 77.0 °F 46.4 °F 34% 29.95 in 10.0 mi NNE 5.8 mph - N/A   Clear
6:15 PM 77.0 °F 46.4 °F 34% 29.94 in 10.0 mi NNE 5.8 mph - N/A   Clear
6:35 PM 75.2 °F 46.4 °F 36% 29.94 in 10.0 mi NE 5.8 mph - N/A   Clear
6:55 PM 73.4 °F 48.2 °F 41% 29.94 in 10.0 mi NNE 4.6 mph - N/A   Clear
7:15 PM 71.6 °F 48.2 °F 43% 29.94 in 10.0 mi North 3.5 mph - N/A   Clear
7:35 PM 71.6 °F 48.2 °F 43% 29.95 in 10.0 mi North 3.5 mph - N/A   Clear
7:55 PM 69.8 °F 46.4 °F 43% 29.95 in 10.0 mi North 3.5 mph - N/A   Clear
8:15 PM 69.8 °F 46.4 °F 43% 29.95 in 10.0 mi North 4.6 mph - N/A   Clear
8:35 PM 69.8 °F 46.4 °F 43% 29.95 in 10.0 mi NNW 5.8 mph - N/A   Clear
8:55 PM 68.0 °F 46.4 °F 46% 29.96 in 10.0 mi North 5.8 mph - N/A   Clear
9:15 PM 68.0 °F 46.4 °F 46% 29.96 in 10.0 mi NW 3.5 mph - N/A   Clear
9:35 PM 68.0 °F 44.6 °F 43% 29.97 in 10.0 mi WNW 4.6 mph - N/A   Clear
9:55 PM 66.2 °F 46.4 °F 49% 29.98 in 10.0 mi NW 3.5 mph - N/A   Clear
10:15 PM 66.2 °F 46.4 °F 49% 29.97 in 10.0 mi NNW 3.5 mph - N/A   Clear
10:35 PM 66.2 °F 44.6 °F 46% 29.98 in 10.0 mi Calm Calm - N/A   Clear
10:55 PM 66.2 °F 46.4 °F 49% 29.97 in 10.0 mi Calm Calm - N/A   Clear
11:15 PM 64.4 °F 48.2 °F 56% 29.97 in 10.0 mi Calm Calm - N/A   Clear
11:35 PM 64.4 °F 48.2 °F 56% 29.97 in 10.0 mi Calm Calm - N/A   Clear
11:55 PM 62.6 °F 48.2 °F 59% 29.97 in 10.0 mi Calm Calm - N/A   Clear